Location: Antioch Baptist Church
(32.6696°N, 85.7327°W)
Time: 19:42:58
(UTC+00:00)

Cosmos 468 Rocket - Pass Details

Date: 14 July 2020
Orbit: 743 x 780 km, 74.0° (Epoch: 13 August)

Event Time Altitude Azimuth Distance (km) Brightness Sun altitude
Rises 09:18:20 0° 338° (NNW) 3,264 7.5 -16.2°
Reaches altitude 10° 09:20:46 10° 334° (NNW) 2,335 6.7 -15.8°
Maximum altitude 09:25:56 56° 257° (WSW) 925 4.1 -15.0°
Drops below altitude 10° 09:31:06 10° 180° (S) 2,321 6.1 -14.1°
Enters shadow 09:33:27 - 176° (S) 3,223 6.9 -13.7°
